RH
42 45 42 44 38 36 34 36 45 57 47 59 56 57 58 76 76 83 98 85 87 90 100 94 88 100 100 99 85 76 74 73 68 57 38 37 34 41 54 59 46 40 38 42 44
41 40 38 37 35 32 26 30 26 28 51 45 51 67 64 59 53 65 71 83 85 87 100 100 100 100 100 100 100 95 86 81 83 66 50 42 33 34 37 36 32 28 29 30 35
37 31 30 30 29 28 27 26 26 25 29 49 49 55 60 55 76 59 47 46 64 78 79 94 84 96 100 100 100 100 100 100 96 75 59 56 45 34 36 41 37 33 34 32 40
31 28 27 24 23 23 23 22 22 24 23 31 36 72 90 66 68 64 71 57 48 43 39 43 52 55 64 71 90 90 74 73 74 73 70 62 55 47 41 43 39 35 44 46 46
29 26 26 24 25 21 19 20 22 20 22 23 23 34 61 63 74 93 97 78 69 57 47 46 46 43 51 58 60 58 62 74 66 74 73 64 57 49 52 45 52 56 54 53 52
31 33 32 27 26 23 20 20 19 18 18 20 23 28 22 30 38 57 65 100 91 72 72 62 49 43 44 44 45 47 50 59 55 62 71 64 58 52 60 63 60 64 62 55 55
40 33 31 28 26 22 22 19 18 18 18 18 21 21 26 26 19 22 51 66 86 100 97 92 78 62 50 50 53 59 64 58 54 49 52 57 68 72 70 69 61 61 54 51 49
43 36 34 26 22 16 15 16 19 18 13 15 19 21 27 31 30 28 22 28 46 91 93 87 90 98 93 80 71 61 65 71 71 62 57 58 68 71 60 48 49 56 59 56 56
39 34 32 30 24 14 12 12 16 13 11 11 14 28 28 22 28 36 31 26 33 42 67 88 100 92 81 80 82 86 86 86 77 77 80 79 74 69 65 65 64 62 58 62 62
23 25 24 23 16 14 15 12 12 11 11 11 11 11 13 26 28 20 27 36 37 33 41 39 56 100 82 85 85 83 86 79 80 77 68 66 64 64 61 71 68 58 64 61 54
14 14 13 14 16 18 17 17 16 15 14 13 13 11 9 10 14 17 16 16 18 27 41 43 53 53 50 73 84 76 83 80 76 72 66 75 91 78 69 64 64 61 56 53 46
14 14 15 16 18 17 17 18 18 16 15 15 15 13 10 9 10 11 11 11 13 12 16 31 51 39 36 37 41 43 58 60 77 78 65 72 82 71 65 59 57 57 45 38 36
16 17 18 17 17 16 16 16 16 17 15 16 15 14 11 10 9 10 9 9 10 9 10 12 16 22 26 28 33 36 33 40 38 43 44 52 51 60 50 54 53 42 35 28 25
17 17 16 16 16 15 14 14 14 15 13 15 14 14 13 11 9 9 10 8 8 8 10 11 15 20 22 20 21 26 33 37 35 47 47 40 50 52 45 41 32 28 23 22 18
16 16 15 14 13 15 13 12 12 13 11 14 14 14 13 12 10 10 10 9 9 9 9 10 11 14 14 14 18 22 27 26 28 30 38 40 29 34 27 25 25 24 22 19 17
16 14 13 14 13 12 12 11 10 11 9 12 14 14 13 12 11 10 10 11 10 9 8 8 10 11 10 11 12 14 15 15 14 15 17 22 24 25 25 25 25 21 19 16 16
13 13 12 12 11 9 9 8 8 8 10 10 12 13 12 12 11 10 10 11 10 10 9 7 7 8 8 9 9 9 11 11 14 18 22 18 16 18 24 23 19 16 15 16 14
13 11 10 10 9 8 8 9 7 8 9 10 12 12 12 13 12 11 10 11 13 11 9 8 8 7 6 6 6 8 9 11 11 14 16 17 17 17 19 18 16 15 15 13 12
10 9 10 10 9 8 9 8 7 7 9 10 11 12 13 14 13 12 10 12 14 12 10 9 7 6 6 6 6 6 6 8 10 13 15 14 15 16 17 16 14 14 13 13 13
10 11 12 10 9 8 8 8 8 8 10 10 10 11 12 13 13 14 12 14 16 17 14 9 6 6 6 6 6 7 7 8 9 11 11 12 14 16 16 14 13 13 13 14 15
11 11 9 9 8 7 7 8 10 10 11 11 11 12 12 13 12 13 13 14 16 17 13 8 6 6 6 7 8 8 8 8 8 8 9 12 14 16 14 13 13 13 14 15 19
10 9 9 9 8 6 7 9 10 10 10 10 11 11 14 14 12 13 13 14 16 15 12 9 8 7 7 9 10 9 8 8 8 8 10 12 15 14 12 13 13 14 15 20 28
9 9 11 11 9 7 8 8 8 10 10 10 11 12 14 15 14 14 14 15 16 13 10 9 8 8 9 10 10 8 7 8 8 9 10 13 13 13 13 13 14 15 19 31 35
10 11 12 12 11 8 8 7 8 10 10 9 11 13 13 14 15 15 17 17 15 12 10 9 9 10 10 10 10 8 8 8 8 9 12 13 13 13 13 15 17 20 28 38 47
10 12 12 12 12 8 8 7 9 11 11 10 11 12 13 14 15 18 19 17 14 11 10 10 11 12 12 12 11 10 10 10 12 13 13 13 14 13 16 18 21 26 42 50 37
10 11 11 10 11 10 8 8 10 11 11 11 12 13 13 14 18 20 19 15 12 11 13 12 14 13 12 12 13 13 13 13 14 14 14 14 14 17 21 25 25 43 49 42 62
10 10 9 9 9 10 9 8 11 12 12 12 14 15 16 18 20 19 16 14 14 15 13 15 15 16 15 15 14 15 15 15 15 14 14 15 17 22 24 25 39 50 39 53 72
Wind_Speed
67 69 71 70 71 72 73 72 73 75 72 71 69 68 67 67 66 66 69 69 68 68 70 72 71 71 69 65 62 60 57 61 58 55 53 54 54 52 52 52 51 47 44 44 46
74 75 75 78 80 80 80 79 79 77 79 80 78 77 75 73 70 70 70 72 72 72 74 74 70 68 69 70 66 64 65 63 64 61 59 57 57 58 57 59 58 54 52 51 51
79 78 81 84 86 89 90 84 87 85 86 84 85 87 84 82 79 76 75 75 74 75 77 80 78 80 76 73 73 73 69 66 68 66 65 64 63 63 62 63 61 58 57 56 58
89 91 91 92 95 93 94 93 91 91 91 92 92 92 93 89 87 84 82 80 78 78 78 78 78 78 77 78 83 77 75 73 70 69 69 68 69 67 67 69 65 63 64 63 63
87 94 96 94 102 96 95 99 98 94 92 95 97 98 99 97 94 92 91 89 85 83 83 82 81 80 80 78 77 78 76 75 75 76 72 71 72 69 74 72 68 70 71 72 71
99 100 95 97 98 99 97 101 99 98 101 101 100 103 102 103 100 98 97 96 94 92 90 88 87 85 82 80 79 78 78 78 76 75 76 75 75 72 77 75 73 75 76 76 76
104 100 105 108 97 102 102 100 103 105 106 104 101 101 110 108 101 101 102 101 101 98 97 95 94 91 88 86 85 83 82 81 82 80 77 77 78 80 80 80 80 80 80 80 82
96 101 104 92 90 88 91 94 92 94 91 98 103 101 107 109 111 109 102 104 105 103 103 102 99 98 97 94 92 91 89 88 87 87 84 82 85 86 84 84 84 84 86 86 86
98 106 103 102 107 88 82 82 87 90 88 84 88 99 101 103 108 113 110 110 109 107 106 105 104 105 103 100 98 97 95 95 93 92 89 89 90 89 87 87 89 90 89 89 89
99 96 96 85 76 75 75 77 78 80 82 84 84 86 87 97 102 105 107 110 111 111 110 110 108 109 108 106 104 101 100 98 98 95 93 93 93 96 93 92 93 91 92 92 93
86 79 76 75 76 77 76 76 77 77 79 79 80 82 82 80 83 91 95 96 100 107 113 111 113 107 111 110 108 106 103 102 103 100 98 98 98 102 97 95 95 95 92 94 97
82 81 78 77 78 76 74 75 76 79 77 79 80 80 83 78 78 85 88 90 91 91 93 100 109 109 105 106 110 107 105 104 102 102 101 99 96 98 98 98 95 93 93 97 98
82 78 74 72 72 75 75 76 75 76 77 77 78 78 79 80 77 80 85 87 87 85 86 87 89 95 97 97 103 107 106 105 102 99 96 96 94 95 96 96 96 98 98 96 96
74 72 70 70 74 73 76 74 74 74 76 73 76 75 77 78 78 77 80 84 82 79 80 82 82 84 87 90 96 98 100 102 102 101 99 101 94 96 95 95 97 98 95 90 86
72 71 66 68 70 74 74 74 73 71 70 68 70 72 75 76 77 74 69 76 78 77 78 79 79 80 83 86 86 88 92 96 101 100 99 99 95 93 94 96 94 89 86 80 77
69 67 67 66 69 67 72 72 69 69 61 62 65 68 70 73 74 71 69 70 75 76 77 77 77 79 80 81 81 82 85 87 85 87 89 89 90 88 89 85 83 80 75 71 65
68 65 65 66 67 70 69 67 69 62 62 63 64 66 66 68 68 67 66 65 70 75 76 76 75 76 77 78 76 77 77 77 73 72 71 76 76 76 73 70 69 66 61 56 52
67 65 66 66 67 66 60 59 57 55 64 64 65 68 66 63 63 63 62 60 64 68 70 71 72 73 73 72 69 67 65 65 60 62 66 65 62 63 60 60 58 53 49 46 43
66 66 60 58 58 54 47 47 46 47 54 58 62 66 65 61 61 60 60 56 58 63 68 69 69 68 63 61 61 60 57 55 53 55 57 57 54 51 52 51 46 42 40 40 39
60 56 49 51 50 47 44 43 42 39 45 48 52 58 60 62 61 58 56 53 55 60 62 63 61 56 53 52 48 47 48 49 50 51 52 51 47 45 46 40 37 36 37 36 35
50 46 43 45 48 47 42 37 37 37 40 42 46 49 56 60 59 56 54 50 52 57 59 59 56 50 46 43 38 39 40 41 44 45 45 41 42 42 36 33 34 33 32 31 30
43 42 42 42 43 39 33 31 33 35 34 36 41 44 48 56 57 55 54 49 51 53 58 56 51 44 38 35 37 36 35 33 35 36 36 37 38 33 30 31 29 28 28 27 23
43 37 37 37 36 32 28 29 30 30 30 32 35 39 45 50 52 50 48 47 49 53 54 52 49 39 33 32 31 30 31 29 31 32 34 34 31 28 28 27 26 26 22 18 20
41 37 31 33 31 27 27 27 26 26 27 29 31 36 41 43 46 46 45 45 48 50 49 45 39 32 29 27 26 26 26 28 31 32 31 29 26 25 24 24 23 19 15 17 14
38 32 29 28 28 25 26 26 23 23 24 26 27 31 34 37 38 40 41 43 45 44 40 34 26 26 25 25 24 24 26 29 30 29 27 25 24 23 23 20 18 13 14 11 7
35 30 26 26 25 24 24 23 20 21 19 20 23 26 30 30 33 37 40 42 41 36 30 24 24 23 23 21 22 24 27 29 28 27 24 25 24 22 21 19 14 12 9 10 15
31 28 25 26 22 21 23 21 19 19 16 18 21 24 26 30 33 35 36 35 30 24 22 22 21 21 20 21 25 27 28 28 28 26 26 25 22 21 19 17 13 10 11 16 14
Wind_Direction
275 273 273 268 269 272 275 269 269 267 264 263 261 258 258 257 257 257 260 260 259 261 262 262 264 261 260 257 257 259 263 267 268 272 266 268 262 264 262 264 267 267 268 269 268
278 278 276 274 274 275 274 270 271 269 266 265 262 261 261 257 256 257 254 256 256 259 261 260 260 261 259 258 256 261 264 262 268 267 266 267 266 267 266 267 270 270 271 271 271
279 279 280 278 279 277 277 275 272 270 267 263 263 261 260 259 259 256 255 253 253 254 257 258 259 258 256 257 258 263 263 264 266 264 265 269 267 265 267 269 271 271 273 276 278
280 280 281 277 280 277 277 276 274 272 270 264 263 260 259 258 258 258 258 256 254 253 254 255 256 257 258 258 258 262 262 265 262 264 263 267 268 266 268 271 273 275 277 278 278
280 282 279 280 279 275 274 274 271 271 268 266 262 260 258 256 256 255 256 257 257 255 255 255 256 257 257 257 258 260 260 261 260 261 260 261 266 267 268 272 274 277 279 278 278
282 284 282 282 279 278 278 273 269 271 269 265 261 259 260 259 259 256 255 254 255 255 255 255 256 255 255 257 257 259 259 258 258 259 261 262 266 266 268 271 274 275 277 277 278
281 283 282 286 279 283 279 277 272 271 268 266 261 261 259 256 259 258 256 254 252 253 254 255 256 255 255 256 257 258 259 260 258 259 261 263 266 266 269 271 274 275 276 278 279
277 279 280 283 281 281 279 278 272 269 266 264 260 261 259 257 257 258 256 254 257 254 254 254 254 254 255 256 256 257 258 260 261 262 264 265 266 268 269 272 274 276 277 279 278
283 280 280 281 281 282 278 275 271 271 270 268 262 258 259 259 258 259 256 256 254 253 254 254 254 255 255 256 257 257 258 260 260 262 264 266 269 270 272 273 274 275 277 277 278
286 283 282 284 281 278 277 272 270 268 268 267 264 262 258 257 260 261 260 257 255 253 254 256 254 254 257 256 256 257 259 260 262 264 266 267 268 270 272 274 274 275 277 278 279
290 289 286 284 280 278 274 269 268 265 263 262 261 260 258 259 258 258 258 256 257 257 255 256 255 257 257 256 257 258 259 260 262 263 265 266 266 269 272 272 273 276 279 279 279
294 291 286 283 280 276 273 268 265 264 261 261 259 258 256 253 253 255 256 256 256 256 255 254 256 259 259 257 256 259 260 261 260 261 263 265 267 268 271 272 274 276 278 278 279
293 289 286 281 276 273 270 268 265 261 261 258 257 258 258 256 252 251 253 254 254 255 255 254 254 255 255 257 258 258 259 259 261 264 265 266 269 270 271 273 274 275 277 279 280
290 286 284 281 277 274 270 268 265 264 262 260 260 260 259 260 258 253 252 254 255 255 253 253 253 252 253 256 255 255 258 260 263 262 264 266 266 270 271 271 274 275 278 280 280
290 288 284 278 275 272 271 270 268 263 265 261 260 258 258 257 257 256 253 251 252 253 253 253 252 251 253 255 255 255 257 260 260 261 263 266 267 269 272 272 273 276 279 278 280
292 288 284 281 277 276 275 273 270 267 268 261 257 256 257 256 256 256 250 249 250 252 252 253 253 252 252 254 254 255 256 260 261 262 264 266 269 270 270 272 275 276 277 278 277
292 291 288 284 283 279 276 275 273 272 268 260 256 254 255 256 255 255 254 247 246 249 253 255 254 255 255 257 257 257 259 260 261 262 262 264 266 265 267 271 273 273 275 274 272
295 293 291 288 283 281 280 276 272 266 259 255 251 252 251 251 252 253 252 247 244 246 250 254 255 257 258 261 263 263 261 261 262 261 261 262 264 266 267 267 270 273 271 269 266
298 296 293 286 285 285 282 276 270 261 257 253 250 248 249 247 246 247 249 247 244 246 247 251 254 259 264 267 264 263 262 259 256 255 254 258 260 261 259 263 267 267 265 263 265
301 298 293 289 286 285 281 278 278 274 265 258 253 248 245 245 242 242 244 243 239 241 248 253 259 262 265 264 266 263 259 255 250 250 251 254 255 253 255 262 262 260 259 262 264
302 297 289 286 282 283 285 284 275 269 265 258 250 246 242 241 241 237 239 240 239 239 248 255 261 263 266 266 263 257 254 251 249 247 247 248 247 247 252 254 254 255 256 257 261
301 297 290 284 279 281 285 281 274 269 264 256 249 241 238 238 237 236 235 235 236 240 246 255 261 263 265 262 260 254 248 242 241 240 237 238 238 243 247 247 249 247 249 256 266
302 296 287 282 278 282 279 275 275 271 266 250 242 235 231 232 233 232 232 233 235 240 248 255 261 264 262 259 250 245 239 232 231 228 228 230 233 235 238 239 239 243 252 258 257
302 294 285 282 279 278 275 273 271 268 260 248 236 230 228 227 227 227 228 230 235 242 249 257 261 258 256 246 242 233 222 222 220 220 220 221 223 225 227 228 236 245 248 247 261
302 292 287 284 278 274 269 272 268 268 261 245 232 226 225 223 222 223 224 228 235 241 249 254 252 249 238 236 235 224 216 211 209 209 209 212 213 215 219 227 234 232 230 242 223
299 291 287 282 279 270 268 270 264 260 254 238 223 217 218 213 213 217 222 227 234 240 245 243 246 237 233 231 218 205 204 202 199 200 197 201 207 208 213 220 221 211 211 159 133
296 291 283 279 277 268 263 263 260 259 244 220 206 205 203 203 206 213 218 224 231 233 231 233 229 224 217 212 199 194 193 191 189 189 196 199 200 200 207 209 199 185 165 136 115